Temperature
14 15 15 15 16 15 14 15 14 16 16 17 18 17 19 20 21 21 22 22 22 22 22 22 21 20 20 19 19 18 17 17 17 17 16 15 15 15 14 14 14 14 14 14
14 15 15 15 16 15 15 15 14 15 16 18 18 18 18 20 19 21 22 22 21 21 22 22 21 21 19 19 19 18 18 18 17 17 16 16 16 16 16 15 15 15 14 14
13 14 14 14 15 15 15 15 16 15 16 16 15 16 17 20 20 20 21 21 21 20 21 21 20 20 19 19 18 18 18 18 17 17 17 17 16 16 16 16 16 15 14 14
13 13 13 17 16 16 16 16 16 15 15 16 16 18 19 20 20 20 21 21 21 21 20 20 19 19 18 18 18 18 18 18 17 17 17 17 16 16 16 16 15 15 14 14
11 12 14 16 16 15 15 16 17 15 15 16 17 18 19 20 20 20 20 20 19 19 19 19 18 18 18 17 17 18 17 17 17 17 17 16 16 16 15 15 15 14 14 13
12 12 13 15 16 16 15 15 16 14 14 15 17 17 17 19 19 19 19 19 18 18 18 18 17 17 16 16 16 16 16 16 16 16 16 16 15 15 15 15 14 13 13 13
12 12 14 14 15 16 14 14 14 14 13 14 15 16 17 18 18 18 18 18 18 17 17 17 16 15 15 14 14 14 14 14 14 15 15 15 15 15 14 14 14 13 12 12
12 13 11 14 13 13 13 13 13 13 14 15 17 17 16 16 16 17 17 17 17 16 16 15 14 14 14 14 13 13 13 13 12 12 13 13 13 13 13 13 12 12 12 12
11 12 12 13 14 14 13 13 13 13 14 15 17 16 15 16 16 16 16 16 16 15 15 14 13 13 13 12 12 12 11 11 12 12 12 12 12 12 12 12 12 12 12 12
10 11 11 12 13 13 13 13 13 13 13 15 16 17 16 16 16 16 16 15 15 14 14 13 13 13 13 12 12 11 11 11 11 11 11 11 10 10 11 12 12 12 12 12
10 12 13 14 14 13 13 13 13 14 14 15 15 17 16 16 17 16 16 15 14 14 14 13 13 13 13 12 12 11 11 11 11 10 11 11 11 11 11 11 11 11 11 11
10 11 11 12 12 12 12 12 13 14 15 16 16 18 17 16 17 17 16 16 15 14 14 14 14 13 13 13 12 11 11 11 11 11 11 11 11 11 11 11 11 11 11 11
9 10 10 11 12 13 13 13 13 14 14 15 16 18 18 16 16 17 16 16 15 15 15 14 14 13 13 13 12 11 11 11 11 11 11 11 11 11 11 11 11 11 11 11
8 8 9 10 11 13 12 13 13 14 15 15 16 18 18 16 16 17 17 16 15 15 15 14 14 14 13 13 12 11 11 11 11 11 10 10 10 10 10 10 10 10 10 10
8 8 8 8 10 12 12 12 14 15 15 16 17 17 17 17 17 17 17 16 16 15 15 15 15 14 13 13 12 11 11 11 11 10 10 10 10 10 10 10 10 9 9 9
8 8 8 8 10 11 12 12 13 15 15 17 17 17 16 17 17 17 17 16 16 16 16 15 15 14 14 13 12 11 11 11 11 10 10 10 10 10 10 10 10 9 9 9
7 7 8 8 8 10 11 12 13 14 16 17 18 17 17 17 18 17 17 17 17 16 16 16 15 15 14 13 12 11 11 11 11 10 11 11 10 10 10 10 9 9 9 9
7 7 7 7 7 8 10 12 13 16 17 18 18 18 18 19 19 18 18 17 17 17 17 16 16 15 14 13 12 11 11 10 10 10 10 10 10 10 10 10 9 9 9 9
7 7 7 8 8 8 9 13 15 17 18 18 18 19 20 20 19 19 18 18 17 17 17 17 16 15 14 13 12 11 10 10 10 10 10 10 10 10 10 10 10 9 9 9
7 8 8 10 11 9 11 14 15 17 18 19 19 19 20 21 20 19 18 18 18 18 17 17 16 15 14 13 12 11 10 10 10 10 10 11 10 10 10 10 10 10 10 10
7 8 8 10 11 10 10 12 15 18 19 19 19 20 20 21 20 19 19 18 18 18 17 17 16 15 14 13 11 10 10 10 10 11 11 10 10 10 10 10 10 10 10 10
7 6 8 10 11 11 11 13 15 17 19 19 20 20 20 20 20 20 19 19 19 18 18 17 16 14 13 12 11 10 10 10 10 10 10 10 10 10 10 10 10 10 9 9
7 7 8 10 11 11 11 12 14 17 19 20 20 20 20 20 19 19 20 19 19 19 18 17 15 14 13 12 11 10 9 9 9 9 10 10 10 10 10 10 10 9 9 9
8 8 8 9 11 12 11 12 14 16 18 20 20 20 19 20 20 20 20 20 19 19 18 17 15 14 13 12 11 10 9 9 9 9 9 9 9 9 9 9 9 9 9 8
8 8 8 9 10 11 11 11 13 15 18 19 20 19 19 20 20 20 20 20 19 19 18 16 15 14 13 11 10 9 9 9 9 9 9 9 9 9 9 8 8 8 8 8
8 8 8 8 9 11 11 11 12 14 16 18 19 19 19 19 20 20 20 19 19 19 17 16 15 14 13 11 10 9 9 9 8 8 8 8 8 8 8 8 8 8 7 7
8 8 9 9 10 11 11 11 11 14 15 17 19 19 19 19 19 19 19 19 19 18 17 15 15 14 12 11 10 9 9 9 9 9 9 9 9 9 8 8 8 8 7 7
Wind_Speed
8 11 8 11 13 8 8 10 9 13 13 15 15 12 10 10 11 11 11 8 9 11 12 10 9 8 8 8 6 6 6 7 9 8 8 9 9 8 8 8 7 7 6 5
6 9 8 10 13 11 12 13 11 16 20 17 14 9 10 12 11 14 13 8 8 10 10 9 8 8 7 8 6 6 7 9 8 7 8 8 8 8 8 8 7 7 6 6
4 4 8 8 7 6 6 7 8 13 18 12 9 11 12 12 10 11 10 7 6 7 6 6 6 7 9 8 7 8 9 9 7 8 9 8 7 7 8 8 7 7 6 6
3 3 5 4 1 1 5 8 5 14 18 14 12 12 11 10 9 9 8 5 5 6 6 3 1 2 4 6 6 7 7 8 7 8 9 8 7 8 8 7 6 6 6 4
3 3 7 5 3 3 3 5 8 20 22 13 6 4 7 5 2 1 2 4 5 7 7 6 6 5 4 1 4 5 5 5 6 7 7 6 7 6 6 6 5 4 4 4
3 3 4 1 8 5 2 4 19 23 19 15 5 1 5 2 6 7 7 7 7 7 7 8 7 8 10 7 5 5 6 4 3 6 7 6 7 6 5 6 7 5 4 3
5 4 3 8 15 9 5 10 19 18 18 14 6 6 4 4 6 7 7 7 7 8 7 6 6 7 8 7 6 4 5 5 4 1 3 4 8 7 8 7 7 5 3 3
4 4 1 10 10 5 4 9 12 15 18 14 9 5 4 6 6 7 8 6 7 7 7 5 5 7 7 5 4 4 5 6 5 4 3 3 5 7 8 8 5 3 2 2
5 3 6 10 5 1 3 7 11 13 17 15 9 5 1 4 4 5 6 6 5 7 6 4 4 5 5 2 2 4 5 5 4 5 4 4 4 5 3 3 4 3 1 2
8 9 16 17 8 5 7 9 11 10 13 16 12 4 4 6 5 4 5 5 5 6 6 3 2 2 2 2 3 4 4 4 4 5 5 4 1 1 1 1 1 1 2 4
8 12 12 11 11 13 17 18 14 14 14 12 12 5 5 5 6 6 5 4 5 5 5 4 3 2 2 3 4 4 4 4 3 3 5 4 3 0 1 2 3 2 3 3
9 13 13 17 16 18 18 15 16 18 20 18 13 8 6 7 6 6 5 5 4 4 4 4 4 3 3 4 5 5 4 2 2 2 3 4 4 3 4 4 3 2 1 0
13 15 17 20 20 18 12 13 14 14 14 15 16 7 5 6 5 6 6 6 6 6 5 4 3 3 2 6 6 5 4 3 2 2 2 2 2 3 2 3 6 9 10 8
15 13 13 15 18 19 13 10 13 14 12 9 10 5 2 4 5 6 7 7 6 5 5 4 3 2 4 6 6 5 4 4 3 2 2 2 2 2 2 1 1 3 7 8
15 17 16 20 23 19 12 9 10 12 12 9 9 7 4 7 9 9 7 6 5 5 5 4 4 3 5 6 6 4 3 3 2 2 2 3 3 2 1 1 2 2 2 4
21 19 17 18 19 15 11 9 9 11 10 11 11 9 8 9 8 7 7 7 7 7 7 6 5 4 6 6 6 4 3 4 3 3 3 3 2 2 2 3 4 3 3 2
19 20 24 23 20 18 12 9 8 10 10 11 11 11 8 8 7 8 8 8 8 6 5 6 5 6 6 6 6 4 3 3 4 3 3 3 3 3 4 4 4 3 1 1
17 18 17 17 16 16 16 13 11 11 10 11 11 10 7 8 11 11 10 7 6 5 6 6 6 7 7 7 6 4 4 3 2 2 3 3 4 4 3 3 3 2 1 1
16 19 18 16 15 15 14 14 14 14 13 10 10 10 8 9 11 8 7 8 7 7 6 6 9 10 8 7 6 4 3 3 3 2 2 4 4 4 3 2 2 2 2 1
15 18 19 18 18 17 15 14 13 15 14 9 9 10 8 8 8 8 9 9 8 6 7 9 10 8 8 8 7 5 4 4 4 3 4 5 4 3 3 2 3 3 2 2
16 20 21 20 19 18 16 14 13 14 14 8 9 10 10 7 7 8 7 7 7 8 9 11 10 8 7 7 7 5 4 4 4 4 4 4 4 3 3 2 3 3 3 3
13 17 20 20 18 18 18 16 13 12 13 10 10 10 9 6 6 7 7 6 7 11 10 8 8 11 11 9 6 5 4 4 4 4 4 4 3 2 3 3 3 3 4 4
12 15 19 19 18 17 18 16 15 13 11 11 11 10 8 6 6 7 8 6 8 12 10 9 13 17 15 8 6 5 5 5 5 4 4 4 3 4 4 4 4 4 4 4
15 16 18 19 17 15 17 18 17 15 12 10 8 7 6 5 5 5 5 10 15 15 11 12 18 19 14 7 6 5 5 5 5 5 5 4 4 4 4 4 4 4 4 4
15 15 16 18 16 14 14 16 15 14 14 11 8 6 5 6 6 6 6 9 15 15 11 16 21 18 10 7 6 6 6 6 6 5 5 5 5 5 5 4 4 5 4 3
12 12 12 14 13 12 11 12 13 13 12 11 9 6 4 2 5 7 7 9 12 13 12 11 12 11 8 7 7 6 6 6 6 5 5 5 5 5 5 4 4 4 4 4
11 12 12 13 12 11 11 12 13 13 12 10 9 5 3 2 5 8 9 10 10 11 10 10 9 9 8 8 7 7 6 6 6 6 5 5 5 5 5 5 4 4 4 4
Wind_Direction
268 275 273 259 257 234 211 225 228 256 251 254 256 266 276 277 283 282 276 249 221 209 200 201 199 204 212 226 218 202 210 226 236 216 206 201 196 190 181 180 190 190 190 203
280 285 288 284 285 274 249 243 247 265 269 262 255 256 271 274 276 286 289 276 235 204 193 187 201 200 210 224 215 209 222 230 237 227 218 215 199 183 178 186 193 188 195 221
264 310 326 289 251 244 267 264 267 279 283 277 254 255 255 267 275 274 285 274 215 182 177 169 197 201 222 226 204 210 225 233 222 222 223 221 201 180 182 185 185 190 194 207
285 341 261 247 249 233 269 274 305 313 308 275 234 243 252 251 259 276 280 251 179 151 129 121 127 180 228 236 231 229 233 239 231 224 227 219 204 200 190 187 188 188 197 202
224 227 288 343 24 348 344 295 7 344 341 331 230 252 273 237 201 312 57 90 93 96 101 97 81 78 97 251 270 268 262 252 250 243 235 201 215 211 170 163 158 167 163 182
194 219 245 328 304 297 158 294 349 348 339 335 305 237 288 43 89 85 83 87 93 96 96 85 73 79 79 65 47 357 329 312 247 232 227 197 175 169 144 134 126 131 139 131
210 220 282 338 325 2 58 316 332 337 334 329 304 293 306 78 92 94 87 85 85 82 83 88 97 94 84 74 59 37 31 46 63 155 204 173 151 149 146 136 127 119 97 81
214 206 240 0 1 26 327 305 321 335 341 324 313 335 37 80 95 102 99 90 89 97 100 96 88 88 82 63 28 41 61 68 75 93 113 140 144 148 151 143 147 135 51 9
295 290 353 334 297 262 271 314 334 332 336 336 341 349 67 111 117 115 114 116 113 116 108 85 77 98 109 102 48 58 64 66 76 74 86 125 146 150 153 160 153 143 208 268
300 312 324 310 303 315 311 333 332 326 323 345 335 314 231 155 156 143 140 132 129 123 123 138 158 121 138 154 103 73 63 61 76 85 83 71 96 154 131 21 348 41 304 293
272 290 311 287 320 336 332 338 340 330 327 332 331 294 237 201 176 170 154 139 143 148 161 181 183 200 193 165 140 110 97 84 67 81 105 96 66 348 203 249 264 250 268 256
303 316 313 299 312 320 317 330 332 329 331 335 327 285 218 214 188 169 160 157 163 180 202 215 224 256 240 175 151 128 117 108 94 91 96 112 110 79 48 41 33 39 47 69
308 302 295 289 296 298 304 318 317 313 312 317 322 290 204 200 190 168 163 171 189 207 218 231 281 322 155 158 152 147 150 155 154 143 119 115 110 121 123 47 41 35 27 28
315 326 310 292 292 290 289 297 301 304 303 312 313 318 199 201 182 179 190 197 200 209 220 226 268 267 158 149 146 148 152 159 151 157 158 160 167 172 180 203 358 28 26 29
310 320 310 302 290 282 283 294 306 313 315 326 340 340 264 221 207 203 203 192 191 213 229 225 235 217 164 145 139 150 165 168 143 131 139 151 162 164 189 181 125 106 74 52
311 311 322 331 326 305 298 298 304 303 308 321 333 328 279 241 230 213 197 185 188 215 225 224 229 200 162 148 139 154 163 149 135 117 96 97 113 112 104 102 101 96 85 56
313 320 330 336 332 324 310 291 280 286 301 311 313 310 282 234 219 221 215 208 215 223 222 222 217 173 155 149 147 157 144 126 118 108 97 95 95 98 109 115 119 121 122 203
304 306 307 310 312 312 311 305 292 288 295 296 296 296 265 216 220 216 213 197 208 235 240 230 190 157 150 149 149 154 144 136 134 133 122 104 95 90 99 109 115 117 109 143
318 310 307 312 322 314 306 300 299 292 282 275 280 283 260 230 230 217 187 174 199 229 235 192 163 149 149 157 159 161 160 154 148 134 117 118 104 92 102 120 123 122 124 104
328 320 315 321 331 331 327 313 292 280 274 265 271 280 271 245 220 192 183 198 205 198 182 163 152 149 153 162 160 156 164 155 141 131 116 113 114 112 114 111 106 106 109 100
337 333 324 325 332 333 328 314 299 285 273 256 254 266 271 257 207 181 184 221 218 172 161 157 154 149 153 158 152 153 159 143 123 119 125 120 119 122 122 101 86 93 87 84
334 328 325 325 325 329 335 335 321 292 273 262 256 260 258 237 201 188 206 213 177 154 152 157 157 154 156 153 148 155 157 135 124 117 117 116 109 99 101 102 89 76 75 72
326 323 328 327 322 324 331 335 333 325 291 261 250 246 237 223 195 187 217 197 159 155 155 160 159 156 151 148 150 159 156 144 139 136 135 127 111 97 96 100 99 95 89 82
322 329 330 327 320 323 331 336 334 329 313 280 259 243 212 201 221 218 178 157 159 155 156 158 156 152 147 152 156 157 144 134 129 128 126 123 114 104 103 109 110 109 106 103
315 321 323 326 321 317 321 330 332 330 333 330 319 295 239 214 221 198 162 158 157 149 150 159 158 152 149 151 156 151 141 137 136 135 133 131 129 123 119 119 118 115 110 104
303 305 307 309 306 302 317 328 330 328 328 326 321 313 292 235 153 141 142 147 147 143 144 149 148 144 147 149 152 144 136 138 138 143 148 146 146 139 131 125 119 117 115 108
294 299 306 310 311 314 318 320 323 322 316 308 297 291 268 212 133 135 143 143 141 138 137 138 140 141 143 143 146 143 144 150 146 137 134 131 134 137 138 142 145 129 112 102
Height
1495 1490 1490 1488 1485 1485 1491 1486 1490 1475 1474 1466 1461 1456 1454 1453 1451 1450 1447 1445 1445 1446 1449 1455 1458 1461 1463 1465 1467 1469 1470 1470 1470 1472 1474 1475 1477 1479 1481 1484 1487 1489 1492 1494
1496 1488 1486 1483 1477 1477 1478 1476 1476 1471 1462 1455 1453 1452 1450 1448 1446 1444 1441 1440 1440 1442 1445 1450 1454 1457 1460 1462 1464 1465 1466 1466 1468 1469 1470 1472 1474 1476 1478 1481 1483 1486 1488 1490
1502 1491 1490 1488 1474 1472 1471 1469 1470 1468 1456 1450 1451 1448 1445 1443 1442 1441 1439 1438 1437 1439 1443 1448 1452 1455 1457 1459 1460 1461 1462 1463 1464 1466 1466 1468 1471 1473 1476 1478 1480 1482 1483 1485
1498 1496 1501 1475 1466 1466 1467 1463 1461 1459 1450 1442 1442 1440 1439 1439 1438 1436 1436 1435 1435 1437 1442 1447 1450 1451 1453 1454 1455 1456 1457 1459 1461 1462 1463 1465 1467 1469 1471 1473 1475 1478 1480 1481
1501 1498 1485 1471 1466 1467 1469 1462 1458 1455 1444 1436 1436 1437 1435 1434 1434 1434 1433 1433 1435 1438 1442 1445 1447 1449 1450 1451 1451 1452 1452 1453 1455 1456 1457 1459 1461 1463 1465 1467 1469 1473 1475 1477
1496 1497 1491 1477 1467 1463 1468 1469 1459 1455 1449 1445 1439 1441 1437 1433 1433 1434 1435 1437 1439 1441 1443 1446 1448 1449 1450 1450 1450 1449 1448 1447 1448 1449 1451 1453 1454 1457 1459 1462 1464 1468 1470 1472
1492 1491 1483 1477 1466 1462 1481 1482 1466 1460 1453 1447 1446 1443 1438 1434 1434 1436 1439 1440 1442 1443 1445 1447 1448 1449 1450 1449 1449 1448 1447 1446 1445 1445 1446 1448 1448 1450 1454 1458 1461 1465 1466 1467
1488 1487 1492 1477 1473 1479 1483 1476 1469 1460 1454 1446 1442 1439 1436 1436 1437 1439 1441 1443 1444 1445 1446 1447 1449 1450 1450 1450 1450 1449 1447 1446 1445 1445 1444 1445 1446 1448 1450 1454 1457 1461 1463 1464
1492 1486 1481 1479 1478 1478 1476 1472 1467 1461 1455 1448 1443 1442 1440 1440 1441 1442 1443 1444 1445 1446 1448 1449 1451 1451 1452 1452 1451 1450 1448 1447 1446 1445 1444 1444 1446 1448 1450 1453 1456 1457 1459 1461
1494 1482 1480 1477 1476 1473 1471 1468 1464 1462 1457 1449 1445 1443 1443 1441 1443 1444 1445 1445 1446 1448 1450 1452 1452 1453 1453 1453 1453 1451 1449 1448 1447 1446 1446 1445 1445 1447 1451 1454 1455 1456 1456 1457
1489 1482 1476 1471 1471 1470 1465 1462 1460 1459 1455 1449 1445 1442 1443 1443 1444 1445 1446 1446 1448 1449 1451 1452 1453 1453 1453 1453 1453 1452 1450 1449 1448 1448 1448 1447 1447 1449 1452 1455 1455 1456 1456 1456
1489 1484 1482 1475 1471 1469 1465 1462 1459 1455 1448 1446 1443 1441 1441 1443 1444 1445 1446 1447 1448 1450 1451 1452 1453 1453 1453 1452 1452 1452 1451 1450 1450 1449 1450 1450 1450 1452 1453 1454 1455 1455 1455 1455
1487 1482 1478 1471 1468 1466 1462 1459 1457 1455 1452 1448 1443 1440 1440 1442 1444 1445 1446 1447 1449 1451 1452 1453 1453 1453 1452 1451 1451 1451 1451 1450 1450 1450 1451 1451 1452 1452 1453 1455 1455 1455 1455 1455
1484 1479 1473 1468 1464 1461 1459 1456 1453 1451 1449 1447 1444 1440 1441 1442 1444 1445 1447 1448 1450 1451 1452 1452 1452 1452 1451 1451 1451 1451 1451 1450 1450 1450 1451 1451 1452 1453 1453 1454 1454 1455 1454 1455
1481 1477 1472 1465 1456 1453 1454 1451 1449 1446 1444 1443 1442 1440 1441 1442 1443 1445 1447 1448 1449 1450 1451 1451 1451 1451 1451 1451 1451 1451 1451 1450 1450 1450 1450 1450 1451 1452 1452 1452 1452 1454 1454 1454
1476 1471 1465 1458 1450 1446 1446 1446 1445 1443 1442 1440 1439 1439 1440 1441 1442 1445 1447 1447 1448 1449 1450 1451 1451 1451 1450 1450 1450 1450 1450 1450 1451 1451 1451 1451 1452 1452 1453 1453 1454 1455 1455 1455
1474 1465 1457 1452 1448 1444 1443 1443 1441 1440 1439 1438 1437 1437 1436 1437 1439 1442 1444 1446 1447 1448 1449 1449 1449 1449 1449 1449 1449 1449 1450 1451 1452 1452 1452 1453 1453 1453 1454 1455 1456 1456 1456 1457
1474 1469 1465 1459 1450 1442 1437 1436 1435 1435 1436 1436 1435 1434 1433 1434 1435 1438 1441 1443 1445 1446 1447 1447 1447 1447 1448 1448 1448 1449 1450 1451 1451 1452 1452 1453 1454 1455 1455 1456 1457 1457 1457 1458
1471 1465 1461 1455 1446 1437 1432 1429 1429 1432 1434 1434 1433 1432 1431 1431 1432 1435 1438 1440 1442 1443 1445 1445 1445 1446 1447 1447 1447 1448 1449 1451 1451 1452 1453 1454 1456 1457 1457 1457 1457 1458 1459 1459
1469 1462 1455 1449 1442 1432 1427 1427 1428 1430 1431 1431 1430 1429 1429 1429 1430 1432 1435 1436 1438 1441 1442 1443 1443 1444 1445 1445 1446 1447 1449 1451 1452 1453 1454 1454 1456 1458 1458 1458 1458 1459 1460 1461
1464 1457 1451 1445 1439 1432 1428 1425 1424 1424 1426 1427 1427 1426 1426 1426 1427 1429 1431 1432 1435 1438 1439 1440 1441 1443 1443 1444 1446 1448 1450 1451 1453 1454 1455 1456 1457 1458 1459 1459 1459 1460 1461 1461
1462 1457 1450 1443 1439 1432 1425 1420 1419 1420 1421 1422 1423 1423 1422 1423 1424 1425 1427 1429 1433 1434 1436 1437 1440 1442 1442 1443 1445 1447 1449 1451 1453 1454 1456 1457 1458 1459 1460 1460 1460 1461 1461 1461
1461 1456 1448 1441 1436 1431 1425 1420 1415 1414 1416 1417 1418 1419 1419 1419 1420 1421 1422 1426 1429 1431 1433 1435 1437 1440 1441 1442 1444 1447 1449 1451 1453 1454 1456 1457 1458 1459 1460 1460 1460 1461 1461 1461
1456 1450 1444 1439 1435 1432 1426 1419 1413 1411 1411 1413 1414 1415 1416 1416 1416 1417 1419 1422 1426 1428 1431 1433 1435 1438 1439 1441 1443 1447 1449 1450 1452 1454 1456 1457 1458 1459 1459 1460 1460 1461 1461 1461
1453 1448 1442 1437 1433 1430 1426 1419 1412 1409 1407 1409 1410 1411 1412 1413 1414 1414 1417 1420 1423 1425 1428 1431 1434 1436 1438 1440 1443 1446 1448 1450 1452 1454 1456 1457 1458 1459 1459 1460 1461 1461 1461 1460
1449 1445 1440 1436 1432 1428 1425 1420 1412 1407 1405 1406 1407 1407 1408 1409 1410 1411 1413 1417 1420 1423 1426 1429 1432 1435 1437 1439 1443 1445 1447 1449 1451 1452 1453 1455 1457 1458 1459 1460 1460 1460 1460 1459
1442 1440 1436 1431 1428 1426 1423 1418 1412 1406 1405 1405 1404 1404 1404 1405 1406 1408 1410 1414 1418 1421 1425 1428 1431 1433 1436 1439 1443 1445 1447 1449 1450 1451 1453 1454 1456 1457 1458 1459 1460 1460 1460 1460